TimeEST,TemperatureF,Dew PointF,Humidity,Sea Level PressureIn,VisibilityMPH,Wind Direction,Wind SpeedMPH,Gust SpeedMPH,PrecipitationIn,Events,Conditions,WindDirDegrees,DateUTC
12:15 AM,30.2,26.6,86,30.00,10.0,Calm,Calm,-,N/A,,Clear,0,2013-02-15 05:15:00
12:35 AM,28.4,24.8,86,30.00,10.0,Calm,Calm,-,N/A,,Clear,0,2013-02-15 05:35:00
12:55 AM,30.2,26.6,86,30.00,7.0,Calm,Calm,-,N/A,,Scattered Clouds,0,2013-02-15 05:55:00
1:15 AM,28.4,26.6,93,30.00,10.0,Calm,Calm,-,N/A,,Mostly Cloudy,0,2013-02-15 06:15:00
1:35 AM,30.2,26.6,86,30.00,10.0,Calm,Calm,-,N/A,,Overcast,0,2013-02-15 06:35:00
1:55 AM,32.0,28.4,87,30.00,10.0,Calm,Calm,-,N/A,,Overcast,0,2013-02-15 06:55:00
2:15 AM,32.0,28.4,87,29.99,7.0,Calm,Calm,-,N/A,,Overcast,0,2013-02-15 07:15:00
2:35 AM,32.0,28.4,87,29.99,10.0,Calm,Calm,-,N/A,,Mostly Cloudy,0,2013-02-15 07:35:00
2:55 AM,32.0,28.4,87,29.99,7.0,Calm,Calm,-,N/A,,Scattered Clouds,0,2013-02-15 07:55:00
3:15 AM,30.2,28.4,93,29.98,7.0,Calm,Calm,-,N/A,,Clear,0,2013-02-15 08:15:00
3:35 AM,32.0,28.4,87,29.98,7.0,South,4.6,-,N/A,,Clear,180,2013-02-15 08:35:00
3:55 AM,35.6,30.2,81,29.99,10.0,SW,4.6,-,N/A,,Clear,220,2013-02-15 08:55:00
4:15 AM,35.6,30.2,81,29.98,7.0,SSW,3.5,-,N/A,,Clear,210,2013-02-15 09:15:00
4:35 AM,35.6,30.2,81,29.99,7.0,SSW,3.5,-,N/A,,Clear,210,2013-02-15 09:35:00
4:55 AM,35.6,30.2,81,29.99,7.0,South,3.5,-,N/A,,Clear,190,2013-02-15 09:55:00
5:15 AM,33.8,28.4,81,29.98,7.0,South,3.5,-,N/A,,Clear,170,2013-02-15 10:15:00
5:35 AM,32.0,28.4,87,29.98,7.0,Calm,Calm,-,N/A,,Clear,0,2013-02-15 10:35:00
6:45 AM,26.6,24.8,93,29.99,6.0,Calm,Calm,-,N/A,,Haze,0,2013-02-15 11:45:00
7:45 AM,28.4,26.6,93,30.00,6.0,Calm,Calm,-,N/A,,Haze,0,2013-02-15 12:45:00
8:45 AM,37.4,30.2,75,30.01,6.0,WSW,6.9,-,N/A,,Haze,240,2013-02-15 13:45:00
9:45 AM,41.0,30.2,65,30.01,6.0,WSW,6.9,-,N/A,,Haze,240,2013-02-15 14:45:00
10:45 AM,44.6,32.0,61,30.01,6.0,SSW,10.4,-,N/A,,Haze,210,2013-02-15 15:45:00
11:45 AM,48.2,32.0,54,29.98,7.0,SSW,5.8,-,N/A,,Partly Cloudy,210,2013-02-15 16:45:00
12:45 PM,51.8,32.0,47,29.95,7.0,SW,8.1,-,N/A,,Clear,230,2013-02-15 17:45:00
1:45 PM,53.6,32.0,44,29.93,10.0,SW,13.8,-,N/A,,Partly Cloudy,220,2013-02-15 18:45:00
2:45 PM,53.6,28.4,38,29.92,10.0,West,11.5,21.9,N/A,,Scattered Clouds,260,2013-02-15 19:45:00
3:45 PM,53.6,28.4,38,29.92,10.0,West,11.5,23.0,N/A,,Scattered Clouds,280,2013-02-15 20:45:00
4:45 PM,51.8,28.4,41,29.92,10.0,WNW,10.4,-,N/A,,Clear,290,2013-02-15 21:45:00
5:45 PM,50.0,24.8,37,29.92,10.0,NNW,3.5,-,N/A,,Clear,330,2013-02-15 22:45:00
6:45 PM,42.8,26.6,53,29.92,10.0,Calm,Calm,-,N/A,,Clear,0,2013-02-15 23:45:00
7:45 PM,37.4,28.4,70,29.93,10.0,Calm,Calm,-,N/A,,Scattered Clouds,0,2013-02-16 00:45:00
8:45 PM,37.4,28.4,70,29.93,10.0,Calm,Calm,-,N/A,,Overcast,0,2013-02-16 01:45:00
9:45 PM,41.0,28.4,61,29.94,7.0,NNW,3.5,-,N/A,,Overcast,330,2013-02-16 02:45:00
9:55 PM,41.0,28.4,61,29.95,10.0,WNW,3.5,-,N/A,,Overcast,300,2013-02-16 02:55:00
10:15 PM,44.6,30.2,57,29.95,10.0,NW,6.9,-,N/A,,Overcast,320,2013-02-16 03:15:00
10:35 PM,44.6,32.0,61,29.98,10.0,WNW,8.1,-,N/A,,Overcast,300,2013-02-16 03:35:00
10:55 PM,42.8,32.0,66,29.98,10.0,NW,5.8,-,N/A,,Overcast,310,2013-02-16 03:55:00
11:15 PM,41.0,33.8,76,29.98,10.0,NW,9.2,-,N/A,Rain,Light Rain,320,2013-02-16 04:15:00
11:35 PM,41.0,33.8,76,29.98,10.0,NNW,8.1,-,N/A,Rain,Rain,340,2013-02-16 04:35:00
11:55 PM,39.2,33.8,81,29.98,7.0,NW,6.9,-,N/A,Rain,Light Rain,320,2013-02-16 04:55:00